Weather History for KSHV - March, 2013

Change the Weather History Date:

Wednesday, March 6, 2013

  Actual Average Record
Temperature  
Mean Temperature 50 °F 55 °F  
Max Temperature 63 °F 67 °F 86 °F (1991)
Min Temperature 37 °F 44 °F 24 °F (1989)
Degree Days  
Heating Degree Days 15 10  
Month to date heating degree days 92 64  
Since 1 July heating degree days 1706 1946  
Cooling Degree Days 0 1  
Month to date cooling degree days 0 4  
Year to date cooling degree days 8 14  
Moisture  
Dew Point 23 °F    
Average Humidity 43    
Maximum Humidity 70    
Minimum Humidity 16    
Precipitation  
Precipitation 0.00 in 0.15 in 2.12 in (1941)
Month to date precipitation T 0.87  
Year to date precipitation 7.44 9.82  
Snow  
Snow 0.00 in - - ()
Month to date snowfall 0.0  
Since 1 July snowfall 0.1  
Snow Depth 0.00 in    
Sea Level Pressure  
Sea Level Pressure 30.32 in    
Wind  
Wind Speed 6 mph (North)    
Max Wind Speed 15 mph    
Max Gust Speed 22 mph    
Visibility 10 miles    
Events      
T = Trace of Precipitation, MM = Missing Value Source: NWS Daily Summary

Daily Weather History Graph

Daily Weather History Graph

Search for Another Location

Airport or City:

Trip Planner

Search our weather history database for the weather conditions in past years. The results will help you decide how hot, cold, wet, or windy it might be!

Date:

Astronomy

Mar. 06, 2013 Rise Set
Actual Time 6:36 AM CST 6:16 PM CST
Civil Twilight 6:11 AM CST 6:41 PM CST
Nautical Twilight 5:43 AM CST 7:09 PM CST
Astronomical Twilight 5:15 AM CST 7:38 PM CST
Moon 2:32 AM CST (3/6) 1:12 PM CST (3/6)
Length of Visible Light 12h 29m
Length of Day
11h 40m
Waning Crescent, 29% of the Moon is Illuminated
Mar 6
Waning Crescent
Mar 11
New
Mar 19
First Quarter
Mar 27
Full
Apr 2
Last Quarter

Hourly Weather History & Observations

Time (CST) Temp. Windchill Dew Point Humidity Pressure Visibility Wind Dir Wind Speed Gust Speed Precip Events Conditions
12:56 AM 39.9 °F 35.8 °F 25.0 °F 55% 30.32 in 10.0 mi NW 5.8 mph - N/A   Clear
1:56 AM 37.9 °F 32.7 °F 26.1 °F 62% 30.32 in 10.0 mi WNW 6.9 mph - N/A   Clear
2:56 AM 37.9 °F 32.7 °F 26.1 °F 62% 30.32 in 10.0 mi NW 6.9 mph - N/A   Clear
3:56 AM 42.1 °F 35.7 °F 25.0 °F 51% 30.32 in 10.0 mi NNW 11.5 mph - N/A   Clear
4:56 AM 41.0 °F 34.3 °F 25.0 °F 53% 30.35 in 10.0 mi North 11.5 mph - N/A   Clear
5:56 AM 39.0 °F 32.3 °F 25.0 °F 57% 30.37 in 10.0 mi North 10.4 mph - N/A   Clear
6:56 AM 39.0 °F 33.4 °F 24.1 °F 55% 30.37 in 10.0 mi North 8.1 mph - N/A   Clear
7:56 AM 42.1 °F 35.2 °F 24.1 °F 49% 30.39 in 10.0 mi North 12.7 mph - N/A   Clear
8:56 AM 45.0 °F 39.7 °F 23.0 °F 42% 30.41 in 10.0 mi North 10.4 mph - N/A   Clear
9:56 AM 48.0 °F - 21.0 °F 34% 30.42 in 10.0 mi North 6.9 mph - N/A   Clear
10:56 AM 51.1 °F - 21.0 °F 31% 30.41 in 10.0 mi North 8.1 mph - N/A   Clear
11:56 AM 54.0 °F - 21.0 °F 28% 30.38 in 10.0 mi NNE 8.1 mph - N/A   Clear
12:56 PM 57.0 °F - 18.0 °F 22% 30.34 in 10.0 mi North 9.2 mph - N/A   Scattered Clouds
1:56 PM 57.9 °F - 16.0 °F 19% 30.30 in 10.0 mi Variable 4.6 mph - N/A   Mostly Cloudy
2:56 PM 61.0 °F - 15.1 °F 17% 30.29 in 10.0 mi North 5.8 mph - N/A   Scattered Clouds
3:56 PM 63.0 °F - 16.0 °F 16% 30.26 in 10.0 mi Variable 5.8 mph - N/A   Scattered Clouds
4:56 PM 62.1 °F - 15.1 °F 16% 30.26 in 10.0 mi NNW 6.9 mph - N/A   Scattered Clouds
5:56 PM 57.0 °F - 17.1 °F 21% 30.26 in 10.0 mi North 4.6 mph - N/A   Mostly Cloudy
6:56 PM 50.0 °F - 24.1 °F 36% 30.26 in 10.0 mi Calm Calm - N/A   Mostly Cloudy
7:56 PM 50.0 °F - 25.0 °F 38% 30.25 in 10.0 mi Calm Calm - N/A   Mostly Cloudy
8:56 PM 50.0 °F - 25.0 °F 38% 30.26 in 10.0 mi Calm Calm - N/A   Mostly Cloudy
9:56 PM 46.0 °F - 30.0 °F 54% 30.27 in 10.0 mi Calm Calm - N/A   Mostly Cloudy
10:56 PM 43.0 °F - 33.1 °F 68% 30.27 in 10.0 mi Calm Calm - N/A   Overcast
11:56 PM 46.9 °F - 28.9 °F 50% 30.26 in 10.0 mi SE 4.6 mph - N/A   Overcast